Home > Weather > Heinsberg > Past weeks

Flag for Germany Weather for the Past 2 Weeks in Heinsberg, North Rhine-Westphalia, Germany

Now
35 °F

Fog.


Feels Like: 35 °F
Forecast: 37 / 40 °F
Wind: 2 mph from East

Location: Maastricht Airport Zuid Limburg

Current Time: Feb 13, 2016 at 12:10:47 PM

Latest Report: Feb 13, 2016 at 11:00 AM


Visibility: 6 mi

Pressure: 29.23 "Hg

Humidity: 86%

Dew point: 31 °F

Location of HeinsbergLocation

Historic Weather in Heinsberg — Graph

°F

Heinsberg Temperature Yesterday

Maximum temperature yesterday: 41 °F (at 3:00 PM)
Minimum temperature yesterday: 34 °F (at 9:00 PM)
Average temperature yesterday: 38 °F

High & Low Weather Summary for the Past Weeks

 TemperatureHumidityPressure
High53 °F (Feb 1, 7:00 PM)99% (Feb 2, 12:00 PM)30.31 "Hg (Feb 2, 12:00 PM)
Low29 °F (Feb 13, 8:00 AM)60% (Feb 3, 2:00 PM)28.82 "Hg (Feb 9, 3:00 PM)
Average44 °F83%29.73 "Hg
* Reported Jan 29 10:00 AM — Feb 13 10:00 AM, Heinsberg, Weather by CustomWeather, © 2016

Note: Actual official high and low records may vary slightly from our data, if they occured in-between our weather recording intervals... More about our weather records

Advertising

Heinsberg Weather History for the Previous 24 Hours

 ConditionsComfort  
Time TempWeatherWind HumidityBarometerVisibility
10:00 AM
Sat, Feb 13
34 °FOvercast.3 mph86%29.23 "Hg4 mi
9:00 AM31 °FFog.2 mph91%29.29 "Hg6 mi
8:00 AM29 °FOvercast.1 mph94%29.32 "Hg7 mi
7:00 AM29 °FFog.1 mph93%29.32 "Hg5 mi
6:00 AM29 °FFog.2 mph91%29.35 "Hg5 mi
5:00 AM30 °FFog.2 mph91%29.35 "Hg3 mi
4:00 AM31 °FPassing clouds.3 mph90%29.35 "Hg7 mi
9:00 PM
Fri, Feb 12
34 °FClear.5 mph78%29.41 "Hg25 mi
8:00 PM35 °FPassing clouds.5 mph76%29.41 "Hg28 mi
7:00 PM36 °FPassing clouds.5 mph73%29.41 "Hg28 mi
6:00 PM38 °FOvercast.6 mph72%29.41 "Hg28 mi
5:00 PM40 °FPartly sunny.5 mph67%29.38 "Hg19 mi
4:00 PM41 °FSunny.6 mph65%29.41 "Hg22 mi
3:00 PM41 °FPartly sunny.6 mph65%29.41 "Hg22 mi
2:00 PM40 °FScattered clouds.5 mph65%29.44 "Hg19 mi
1:00 PM40 °FScattered clouds.6 mph68%29.47 "Hg22 mi
12:00 PM41 °FOvercast.7 mph70%29.50 "Hg15 mi
Weather by CustomWeather, © 2016

See weather overviewHow to use our weather pages